Regional Weather Roundup
Issued by NWS

Home | Current Version | Previous Version | Text Only | Print | Product List | Glossary Off
Versions: 1 2 3 4 5 6 7 8 9 10 11 12 13 14 15 16 17 18 19 20 21 22 23 24 25 26 27 28 29 30 31 32 33 34 35 36 37 38 39 40 41 42 43 44 45 46 47 48 49 50

000
ASUS45 KTFX 201204
RWRMT
MONTANA HOURLY WEATHER ROUNDUP
NATIONAL WEATHER SERVICE GREAT FALLS MT
604 AM MDT SUN APR 20 2014

NOTE: "FAIR" INDICATES FEW OR NO CLOUDS BELOW 12000 FEET WITH NO
SIGNIFICANT WEATHER AND/OR OBSTRUCTIONS TO VISIBILITY.

* THESE STATIONS ARE NOT UNDER NWS QUALITY CONTROL. THEY DO NOT
   REPORT WEATHER SUCH AS PRECIPITATION OR FOG.

MTZ001>007-043-201300-
WEST OF THE DIVIDE
CITY           SKY/WX    TMP DP  RH WIND       PRES   REMARKS
KALISPELL      PTCLDY    39  34  82 SE12      30.07R WCI  32
MISSOULA       CLOUDY    43  27  53 CALM      30.16R
BUTTE          FAIR      37  25  62 CALM      30.10R
MULLAN PASS    CLOUDY    27  25  92 SW14G23   30.10R WCI  16
* ESSEX        N/A       35  33  92 SW2        N/A
* LINCOLN      N/A       40  24  53 SW8G20     N/A   WCI  35
* LOOKOUT PASS N/A       34  28  79 SE13G22    N/A   WCI  25
* POLSON       N/A       37  28  70 SE2G7      N/A
* SEELEY LAKE  N/A       37  28  70 E2G9       N/A
* THOMP F APT  CLEAR     40  26  57 NE2G7      N/A
$$

MTZ008-052>055-201300-
SOUTHWEST MONTANA
CITY           SKY/WX    TMP DP  RH WIND       PRES   REMARKS
BOZEMAN        MOCLDY    39  28  65 W8        30.06R WCI  33
DILLON         PTCLDY    43  27  53 SW16      30.07R
W YELLOWSTONE  N/A       29  24  82 S2         N/A
* THREE FORKS  PTCLDY    46  32  58 NW10G17    N/A
* BOULDER HILL N/A       35  24  64 E2         N/A
* MONIDA PASS  N/A       36  19  50 W12G18     N/A   WCI  28
* RAYNOLDS PAS N/A       39  19  45 SE6        N/A   WCI  35
* WHITEHALL    N/A       44  27  51 S6G14      N/A
* WISE RIVER   N/A       37  22  55 W13G25     N/A   WCI  29
$$

MTZ009>010-012-014-046-048-049-054-201300-
EAST SLOPES AND CENTRAL MONTANA
CITY           SKY/WX    TMP DP  RH WIND       PRES   REMARKS
CUT BANK       CLEAR     39  30  70 SW33G46   29.88F WCI  27
GREAT FALLS    CLEAR     39  27  62 SW15      30.00R WCI  31
HELENA         PTCLDY    45  27  49 SW5       30.07R
MALMSTROM AFB  PTCLDY    43  25  49 S16       29.97R
* CONRAD       CLEAR     37  28  70 SW10G15    N/A   WCI  30
* DEARBORN     N/A       47  22  37 S12G25     N/A
* MONARCH      N/A       40  16  38 W27G38     N/A   WCI  29
* PENDROY      N/A       34  25  70 NW9        N/A   WCI  27
* ROGERS PASS  N/A       36  19  50 SE16G34    N/A   WCI  26
* SAINT MARY   N/A       34  30  85 S6G18      N/A   WCI  29
* SWEET GRASS  N/A       37  34  89 S22G35     N/A   WCI  26
$$

MTZ011-013-016-021-035-040-045-047-050-051-201300-
NORTH CENTRAL MONTANA
CITY           SKY/WX    TMP DP  RH WIND       PRES   REMARKS
HAVRE          MOCLDY    46  28  50 SW14      29.90R
LEWISTOWN      MOCLDY    43  27  53 VRB5      29.97R
* MALTA APT    CLOUDY    39  21  48 SW12G18   29.81R WCI  32
* CHESTER      N/A       44  26  49 W11G18     N/A
* DENTON       N/A       48  28  46 W26G38     N/A
* GEYSER       N/A       43  24  47 W19G32     N/A
* JUDITH GAP   N/A       42  27  55 N16G22     N/A
* LOMA         N/A       49  25  39 SW11G20    N/A
$$

MTZ017>020-022>027-061-062-201300-
NORTHEAST MONTANA
CITY           SKY/WX    TMP DP  RH WIND       PRES   REMARKS
GLASGOW        CLOUDY    37  28  70 E13       29.78F WCI  29
GLENDIVE       PTCLDY    36  25  64 CALM      29.86F
JORDAN         CLOUDY    36  28  73 W6        29.81R WCI  31
SIDNEY         MOCLDY    30  28  92 CALM      29.87S
WOLF POINT     MOCLDY    34  28  79 E6        29.82F WCI  29
* BEAVER HILL  N/A       47  29  50 SE16       N/A
* CIRCLE       N/A       47  30  52 N/A        N/A
* LINDSAY DVD  N/A       38  24  57 SE1        N/A
* NAVAJO       N/A       38  29  70 S8         N/A   WCI  32
* SACO         N/A       36  29  76 W6G14      N/A   WCI  31
* SCOBEY APT   MOCLDY    36  27  70 CALM      29.80F
$$

MTZ028>042-056>058-201300-
SOUTHCENTRAL AND SOUTHEAST MONTANA
CITY           SKY/WX    TMP DP  RH WIND       PRES   REMARKS
BAKER          PTCLDY    36  28  73 E7        29.88F WCI  30
BILLINGS       CLOUDY    52  27  38 NW10      29.89R
LIVINGSTON     MOCLDY    45  28  51 NW9G20    30.01R
MILES CITY     MOCLDY    43  34  71 SE14      29.83F
* EKALAKA APT  CLEAR     46  30  54 E7        29.88S
* LAUREL APT   CLOUDY    54  23  30 W17        N/A
* ROUNDUP APT  CLOUDY    45  25  45 N/A        N/A
* HYSHAM       N/A       50  22  33 W7         N/A
* LAME DEER    N/A       47  27  46 S8         N/A
* REED POINT   N/A       35  28  76 W1         N/A
* ROSCOE HILL  N/A       54  12  19 E3G8       N/A
$$

REGIONAL REPORTS...DAKOTAS
CITY           SKY/WX    TMP DP  RH WIND       PRES   REMARKS
WILLISTON      MOCLDY    30  27  89 CALM      29.86F
DICKINSON      CLEAR     36  25  64 S12       29.88S WCI  28
CROSBY         FAIR      28  28 100 CALM      29.87F
TIOGA          CLEAR     28  28 100 E5        29.91F WCI  22
WATFORD CITY   CLEAR     32  28  85 CALM      29.86F
BISMARCK       CLEAR     34 N/A N/A E7        29.96F WCI  28
GRAND FORKS    FAIR      28  27  96 CALM      30.04R
FARGO          CLEAR     30  28  92 CALM      30.03S
BUFFALO SD     CLEAR     43  27  53 SE3       29.85F
RAPID CITY     CLEAR     37  28  70 CALM      29.91F
$$

REGIONAL REPORTS...WYOMING/IDAHO/WASHINGTON
CITY           SKY/WX    TMP DP  RH WIND       PRES   REMARKS
GILLETTE       CLEAR     36  30  79 CALM      29.93R
SHERIDAN       PTCLDY    39  27  62 CALM      29.90S
CODY           CLOUDY    46  27  48 S5        29.95R
YELLOWSTONE LA MOCLDY    25  21  85 CALM      30.10S
SALMON         CLEAR     45  25  45 NW10      30.14R
MULLAN PASS    CLOUDY    27  25  92 SW14G23   30.10S WCI  16
SPOKANE        FAIR      37  30  76 S13       30.17R WCI  29

$$




USA.gov is the U.S. government's official web portal to all federal, state and local government web resources and services.